[[{"header":{"parameterUnit":"m.s-1","parameterCategory":1,"la1":30.2991,"la2":30.254,"lo1":-89.0895,"lo2":-89.0444,"dy":0.0017,"dx":0.0017,"nx":28,"ny":28,"refTime":"2025-08-03T03:00:00:Z","depth":0,"parameterNumber":2,"parameterNumberName":"U-component_of_WINDS"},"data":[0,0,0,0,0,0,0,0,0,0,0,0,0,0,0,0,0,0,0,0,0,0,0,0,0,0,0,0,0,0,0,0,0,0,0,0,0,0,0,0,0,0,0,0,0,0,0,0,0,0,0,0,0,0,0,0,0,0,2.4133,2.4134,0,2.4236,2.4237,2.4238,2.4245,2.4244,2.4243,2.4242,2.4345,2.4348,2.4352,0,0,0,0,0,0,0,0,0,0,0,0,0,2.3939,2.3943,2.4133,2.4134,2.4135,2.4236,2.4237,2.4239,2.4245,2.4244,2.4242,2.4241,2.4343,2.4348,2.4352,0,0,0,0,0,0,0,0,0,0,0,0,0,2.4031,2.3944,2.4133,2.4151,2.4154,2.4236,2.4237,2.4239,2.4246,2.4244,2.4242,2.424,2.4342,2.4347,2.4353,2.4423,0,0,2.4371,2.4373,0,0,0,0,0,0,0,0,2.4026,2.4038,2.4147,2.415,2.4153,2.4226,2.4207,2.4301,2.4246,2.4211,2.4242,2.424,2.4306,2.4315,2.4338,2.4428,2.4432,2.4371,2.4374,2.4377,2.4379,0,0,0,0,0,0,0,2.4019,2.4033,2.4174,2.4148,2.4152,2.4153,2.4164,2.4225,2.4267,2.4213,2.4214,2.4226,2.4308,2.4332,2.434,2.4434,2.4371,2.4376,2.4379,2.4382,2.4586,2.4588,0,0,0,0,0,0,2.401,2.4028,2.417,2.4177,2.4084,2.4158,2.417,2.4204,2.4266,2.4274,2.4228,2.4226,2.4323,2.4334,2.4344,2.4429,2.4377,2.4382,2.4386,2.4584,2.4586,2.4588,0,0,0,0,0,0,2.4006,2.4022,2.4166,2.4103,2.4121,2.4163,2.4201,2.4207,2.4232,2.4277,2.4284,2.4246,2.4323,2.4336,2.4403,2.4433,2.4385,2.439,2.4581,2.4585,2.4587,2.4601,0,0,0,0,0,0,2.4,2.4021,2.4048,2.4103,2.4125,2.4225,2.4203,2.421,2.4242,2.4241,2.4296,2.4303,2.4322,2.4395,2.4409,2.444,2.4395,2.4579,2.4583,2.4586,2.4598,2.4604,2.4609,0,0,0,0,0,2.3993,2.4048,2.405,2.4067,2.416,2.4226,2.4238,2.426,2.4245,2.4272,2.4301,2.4301,2.4428,2.4402,2.4418,2.4451,2.4577,2.4582,2.4586,2.4596,2.4603,2.4609,0,0,0,0,0,0,2.3994,2.4055,2.4058,2.4133,2.4174,2.4227,2.4263,2.4267,2.4314,2.4311,2.4335,2.4347,2.4414,2.4439,2.4409,2.4522,2.4501,2.4509,2.4502,2.451,2.4515,2.4507,2.4399,0,0,0,0,0,2.4003,2.4053,2.4103,2.4164,2.4185,2.422,2.425,2.4263,2.4307,2.4325,2.4359,2.44,2.445,2.4481,2.4529,2.4602,2.4614,2.4633,2.4639,2.4643,2.4649,2.4689,2.4698,2.4603,2.4603,2.4603,0,0,2.4022,2.4062,2.4091,2.4165,2.4199,2.4249,2.4235,2.4289,2.4325,2.4332,2.4398,2.4425,2.4473,2.4543,2.4576,2.4567,2.4678,2.4649,2.4652,2.4656,2.4694,2.4703,2.4711,2.4606,2.4606,2.4605,0,0,2.4082,2.4118,2.4172,2.4206,2.4258,2.4281,2.4294,2.4347,2.4365,2.4432,2.4438,2.4482,2.4566,2.46,2.4628,2.4702,2.4703,2.4716,2.4745,2.4783,2.4791,2.4798,2.4822,2.4831,2.4723,2.4723,2.4723,0,2.4099,2.4175,2.4199,2.4252,2.4284,2.4294,2.4348,2.438,2.4445,2.4466,2.4455,2.4561,2.4594,2.4672,2.469,2.4713,2.4728,2.471,2.4788,2.4795,2.4802,2.4825,2.4835,2.4724,2.4724,2.4724,2.4724,0,2.4192,2.4245,2.4282,2.4345,2.4381,2.4435,2.4466,2.45,2.451,2.4534,2.4601,2.4642,2.4698,2.4718,2.4728,2.4797,2.479,2.4783,2.4762,2.4811,2.4834,2.4844,2.4726,2.4725,2.4725,2.4725,0,0,2.4255,2.433,2.4343,2.4372,2.443,2.4471,2.4525,2.458,2.4608,2.4652,2.4697,2.4769,2.4763,2.4795,2.481,2.4844,2.4897,2.4833,2.4834,2.4842,2.4975,2.4978,2.4988,2.4899,2.4901,2.4903,2.497,0,2.432,2.4417,2.444,2.4522,2.457,2.4581,2.4627,2.4667,2.4692,2.4736,2.4762,2.4812,2.4802,2.4821,2.4855,2.4884,2.4924,2.4879,2.494,2.4942,2.4926,2.5001,2.5004,2.5066,2.4979,2.4981,2.4982,0,2.4409,2.4456,2.4543,2.4594,2.4616,2.4657,2.471,2.4752,2.4798,2.4813,2.4849,2.486,2.4915,2.4893,2.4969,2.4938,2.4964,2.4982,2.4985,2.499,2.4964,2.5006,2.5086,2.5095,2.4997,2.4996,2.4994,0,2.4444,2.4529,2.4592,2.4616,2.4678,2.4707,2.4734,2.4778,2.481,2.4855,2.4876,2.4928,2.4955,2.4994,2.5019,2.5,2.5092,2.5072,2.5105,2.5104,2.5123,2.5121,2.5207,2.5142,2.5142,2.5142,2.5142,0,2.4514,2.4566,2.4609,2.4647,2.4706,2.4732,2.479,2.4817,2.4856,2.4899,2.4911,2.4951,2.4982,2.5026,2.5045,2.5105,2.5118,2.513,2.5134,2.5128,2.5127,2.5145,2.5141,2.5145,2.5144,2.5143,2.5143,0,2.4562,2.4593,2.4662,2.4715,2.473,2.4771,2.4816,2.4853,2.4878,2.4933,2.4947,2.4986,2.5038,2.5067,2.5133,2.5146,2.5212,2.5214,2.5196,2.5198,2.5229,2.5225,2.5328,2.5342,2.527,2.527,2.5271,0,2.4604,2.4645,2.4703,2.4733,2.476,2.4809,2.4842,2.4869,2.4902,2.4957,2.4987,2.5041,2.5085,2.5169,2.5202,2.5252,2.5255,2.5288,2.5263,2.5255,2.5254,2.525,2.5254,2.5292,2.5292,2.5293,2.5293,0,2.4674,2.4688,2.4734,2.4787,2.4825,2.4868,2.4909,2.4933,2.4967,2.5004,2.5058,2.5092,2.516,2.5212,2.5265,2.5292,2.5298,2.5301,2.5311,2.5305,2.5292,2.5298,2.5207,2.5298,2.5298,2.5297,2.5297,2.5297,2.472,2.4757,2.4803,2.4854,2.4889,2.4927,2.4965,2.4995,2.5041,2.5098,2.5111,2.5168,2.5212,2.5284,2.5313,2.5357,2.535,2.5365,2.5369,2.5372,2.5372,2.5286,2.5367,2.5367,2.5367,2.5367,2.5366,0,2.479,2.482,2.4868,2.4926,2.4966,2.4969,2.5016,2.5049,2.5099,2.514,2.5184,2.5246,2.5297,2.5334,2.5386,2.5414,2.5418,2.5427,2.5424,2.543,2.5376,2.5361,2.5423,2.5423,2.5423,2.5423,2.5423,2.5423,2.4831,2.4892,2.4911,2.4989,2.5019,2.5075,2.5101,2.5137,2.517,2.5239,2.5281,2.5306,2.5345,2.54,2.5447,2.5456,2.5474,2.5482,2.5492,2.544,2.5434,2.5428,2.5415,2.5486,2.5486,2.5543,2.5543,2.5543]},{"header":{"parameterUnit":"m.s-1","parameterCategory":1,"la1":30.2991,"la2":30.254,"lo1":-89.0895,"lo2":-89.0444,"dy":0.0017,"dx":0.0017,"nx":28,"ny":28,"refTime":"2025-08-03T03:00:00:Z","depth":0,"parameterNumber":3,"parameterNumberName":"V-component_of_WINDS"},"data":[0,0,0,0,0,0,0,0,0,0,0,0,0,0,0,0,0,0,0,0,0,0,0,0,0,0,0,0,0,0,0,0,0,0,0,0,0,0,0,0,0,0,0,0,0,0,0,0,0,0,0,0,0,0,0,0,0,0,0.0379,0.0379,0,0.0416,0.0416,0.0417,0.0423,0.0423,0.0422,0.0422,0.0465,0.0466,0.0468,0,0,0,0,0,0,0,0,0,0,0,0,0,0.0317,0.0318,0.0379,0.0379,0.038,0.0416,0.0416,0.0417,0.0423,0.0423,0.0422,0.0422,0.0464,0.0466,0.0468,0,0,0,0,0,0,0,0,0,0,0,0,0,0.0348,0.0319,0.0379,0.0387,0.0388,0.0416,0.0416,0.0417,0.0423,0.0423,0.0422,0.0422,0.0464,0.0466,0.0468,0.0491,0,0,0.0475,0.0476,0,0,0,0,0,0,0,0,0.0347,0.0351,0.0385,0.0387,0.0388,0.0414,0.041,0.0442,0.0423,0.041,0.0422,0.0421,0.0449,0.0452,0.046,0.0493,0.0495,0.0475,0.0476,0.0477,0.0478,0,0,0,0,0,0,0,0.0344,0.0349,0.0394,0.0386,0.0387,0.039,0.0394,0.0416,0.0432,0.0411,0.0412,0.0416,0.0449,0.0458,0.0461,0.0496,0.0475,0.0477,0.0478,0.0479,0.0549,0.0549,0,0,0,0,0,0,0.034,0.0347,0.0393,0.0395,0.0365,0.0392,0.0396,0.0406,0.0432,0.0435,0.0416,0.0416,0.0455,0.0459,0.0463,0.0491,0.0477,0.0479,0.048,0.0548,0.0549,0.055,0,0,0,0,0,0,0.0339,0.0344,0.0391,0.0371,0.0377,0.0393,0.0405,0.0407,0.0416,0.0435,0.0438,0.0422,0.0454,0.046,0.0484,0.0493,0.048,0.0482,0.0548,0.0549,0.0549,0.0548,0,0,0,0,0,0,0.0337,0.0344,0.0352,0.0371,0.0378,0.041,0.0405,0.0408,0.0419,0.0419,0.0442,0.0445,0.0454,0.048,0.0486,0.0495,0.0484,0.0547,0.0548,0.0549,0.0548,0.0549,0.055,0,0,0,0,0,0.0335,0.0351,0.0352,0.0358,0.0389,0.0411,0.0415,0.0424,0.042,0.0429,0.0441,0.0444,0.0491,0.0483,0.0489,0.0499,0.0547,0.0548,0.0549,0.0547,0.0549,0.055,0,0,0,0,0,0,0.0335,0.0354,0.0355,0.0378,0.0392,0.0411,0.0423,0.0426,0.0443,0.0442,0.0454,0.0459,0.0482,0.0493,0.0484,0.0523,0.0518,0.0521,0.0515,0.0517,0.0518,0.0515,0.0486,0,0,0,0,0,0.0337,0.0352,0.0369,0.0387,0.0394,0.0407,0.0417,0.0423,0.0439,0.0445,0.0459,0.0476,0.0494,0.0506,0.0524,0.0549,0.0554,0.0559,0.056,0.0561,0.0564,0.0577,0.058,0.0554,0.0554,0.0554,0,0,0.0343,0.0355,0.0364,0.0388,0.0399,0.0415,0.0412,0.043,0.0442,0.0449,0.0471,0.0482,0.0501,0.0525,0.0537,0.0535,0.0572,0.0563,0.0564,0.0565,0.0579,0.0581,0.0583,0.0555,0.0554,0.0554,0,0,0.0361,0.0372,0.0388,0.0399,0.0416,0.0424,0.0428,0.0447,0.0453,0.0476,0.048,0.0496,0.0527,0.054,0.0551,0.0573,0.0576,0.0578,0.0585,0.0598,0.06,0.0602,0.061,0.0612,0.058,0.058,0.058,0,0.0366,0.0389,0.0397,0.0413,0.0423,0.0428,0.0445,0.0456,0.0478,0.0486,0.0483,0.0521,0.0535,0.0562,0.0567,0.0575,0.0581,0.0576,0.0599,0.0601,0.0603,0.061,0.0613,0.0581,0.0581,0.058,0.058,0,0.0395,0.0411,0.0422,0.0441,0.0453,0.047,0.0481,0.0492,0.0496,0.0505,0.0527,0.0543,0.0564,0.0571,0.0576,0.0598,0.0597,0.0596,0.0592,0.0605,0.0612,0.0615,0.0581,0.0581,0.0581,0.0581,0,0,0.0415,0.0437,0.0441,0.045,0.0468,0.0481,0.0498,0.0516,0.0525,0.054,0.0555,0.0581,0.058,0.0592,0.0599,0.061,0.0626,0.0609,0.0609,0.0611,0.0651,0.0651,0.0654,0.0628,0.0628,0.0629,0.0649,0,0.0436,0.0464,0.0471,0.0496,0.0511,0.0514,0.0529,0.0543,0.0551,0.0566,0.0576,0.0593,0.0591,0.0598,0.061,0.0621,0.0634,0.062,0.0643,0.0643,0.0638,0.0658,0.0658,0.0676,0.0652,0.0652,0.0653,0,0.0464,0.0477,0.0503,0.0518,0.0525,0.0538,0.0554,0.0568,0.0583,0.0589,0.0601,0.0606,0.0625,0.0619,0.0645,0.0635,0.0645,0.0652,0.0653,0.0656,0.0649,0.0661,0.0683,0.0685,0.0657,0.0657,0.0657,0,0.0475,0.05,0.0519,0.0526,0.0544,0.0553,0.0562,0.0576,0.0586,0.0601,0.0608,0.0626,0.0636,0.065,0.0659,0.0654,0.0684,0.068,0.069,0.069,0.0697,0.0696,0.072,0.0703,0.0703,0.0703,0.0703,0,0.0498,0.0513,0.0524,0.0536,0.0554,0.0561,0.0579,0.0588,0.06,0.0614,0.0619,0.0632,0.0644,0.0659,0.0667,0.0687,0.0692,0.0697,0.0699,0.0696,0.0696,0.0703,0.0702,0.0703,0.0703,0.0703,0.0703,0,0.0514,0.0522,0.0542,0.0557,0.0561,0.0574,0.0587,0.0599,0.0606,0.0624,0.0628,0.0641,0.0659,0.067,0.0693,0.0698,0.072,0.0722,0.0715,0.0716,0.0725,0.0724,0.0755,0.0759,0.0739,0.0739,0.0739,0,0.0528,0.054,0.0555,0.0564,0.0572,0.0586,0.0596,0.0603,0.0614,0.0631,0.0641,0.0658,0.0672,0.0701,0.0713,0.073,0.0733,0.0742,0.0735,0.0732,0.0733,0.0732,0.0733,0.0743,0.0744,0.0744,0.0744,0,0.0551,0.0554,0.0567,0.0581,0.0592,0.0605,0.0617,0.0624,0.0634,0.0645,0.0662,0.0673,0.0695,0.0713,0.0731,0.0741,0.0744,0.0746,0.0749,0.0747,0.0742,0.0744,0.0718,0.0745,0.0745,0.0745,0.0745,0.0745,0.0567,0.0577,0.0589,0.0603,0.0613,0.0624,0.0635,0.0643,0.0657,0.0675,0.0679,0.0696,0.0711,0.0735,0.0745,0.076,0.0759,0.0763,0.0765,0.0766,0.0766,0.0739,0.0763,0.0763,0.0763,0.0763,0.0763,0,0.059,0.0597,0.061,0.0626,0.0637,0.0637,0.0651,0.066,0.0675,0.0688,0.0701,0.072,0.0737,0.075,0.0767,0.0776,0.0778,0.078,0.078,0.0782,0.0766,0.0761,0.0778,0.0778,0.0778,0.0778,0.0778,0.0778,0.0604,0.0621,0.0625,0.0647,0.0655,0.0671,0.0678,0.0688,0.0698,0.0719,0.0732,0.0739,0.0752,0.0769,0.0785,0.0788,0.0794,0.0796,0.08,0.0785,0.0783,0.0782,0.0777,0.0797,0.0798,0.0815,0.0815,0.0815]}]]